{"data":{"norad_id":59659,"epoch":"2026-05-24T21:44:12.638112Z","epoch_age_seconds":93857,"freshness":"FRESH","line1":"1 59659U 24084F   26144.90570183 -.00000607  00000+0 -12539-4 0  9990","line2":"2 59659  43.0033 327.5430 0001230 257.2884 102.7830 15.27575312116079","mean_motion":15.27575312,"eccentricity":0.000123,"inclination_deg":43.0033,"raan_deg":327.543,"arg_perigee_deg":257.2884,"mean_anomaly_deg":102.783,"bstar":-1.2539e-5,"rev_number":11607,"period_min":94.267038010366,"perigee_km":482.21920601761,"apogee_km":483.90706125049,"semimajor_km":6861.2001336341,"source":"CELESTRAK","updated_at":"2026-05-25T13:38:19.018500Z"}}